Regional Weather Roundup
Issued by NWS

Home | Current Version | Previous Version | Graphics & Text | Print | Product List | Glossary On
Versions: 1 2 3 4 5 6 7 8 9 10 11 12 13 14 15 16 17 18 19 20 21 22 23 24 25 26 27 28 29 30 31 32 33 34 35 36 37 38 39 40 41 42 43 44 45 46 47 48 49 50
000
ASUS44 KMEG 261800
RWRTN
TENNESSEE HOURLY STATE WEATHER ROUNDUP
NATIONAL WEATHER SERVICE MEMPHIS TN
1200 PM CST MON JAN 26 2015

TNZ002-004-019-021-049-052-054-088>092-261900-
WEST TENNESSEE

CITY           SKY/WX    TMP DP  RH WIND       PRES   REMARKS
MEMPHIS INTL   CLOUDY    41  30  65 W7        30.11F
NWS MEMPHIS      N/A     42 N/A N/A MISG        N/A
JACKSON        CLOUDY    39  28  64 NW14      30.08F WCI  31
DYERSBURG      CLOUDY    37  19  48 NW9       30.11F WCI  31
UNION CITY     CLOUDY    34  28  80 W12       30.05F WCI  25
PARIS          CLOUDY    36  27  69 NW10      30.04F WCI  28
LEXINGTON      PTSUNNY   37  27  65 NW8       30.03F WCI  31
SAVANNAH       MOSUNNY   39  27  60 NW10      30.06F WCI  32
$$

TNZ008-025-027-028-033-062-065-066-261900-
NORTH MIDDLE TENNESSEE

CITY           SKY/WX    TMP DP  RH WIND       PRES   REMARKS
NASHVILLE      CLOUDY    34  28  79 NW7       30.02S WCI  28
CLARKSVILLE    CLOUDY    33  28  81 W8        30.02F WCI  26
COOKEVILLE     CLOUDY    30  28  93 NW12      29.94F WCI  21
CROSSVILLE     CLOUDY    28  25  88 NW8       29.88F WCI  20
$$

TNZ061-075-076-078-094-096-097-261900-
SOUTH MIDDLE TENNESSEE

CITY           SKY/WX    TMP DP  RH WIND       PRES   REMARKS
FAYETTEVILLE   CLOUDY    34  27  75 MISG      29.98F
TULLAHOMA      CLOUDY    30  27  86 NW9       29.98S WCI  22
WINCHESTER     CLOUDY    32  28  86 NW12      29.98S WCI  23
SHELBYVILLE    CLOUDY    34  30  86 NW10      30.01S WCI  26
$$

TNZ017-018-042-046-047-261900-
NORTHEAST TENNESSEE

CITY           SKY/WX    TMP DP  RH WIND       PRES   REMARKS
TRI CITIES     CLOUDY    38  32  79 W13       29.73S WCI  30
ELIZABETHTON   CLOUDY    36  34  93 W8        29.71F WCI  29
$$

TNZ012-013-036-069-073-074-261900-
CENTRAL EAST TENNESSEE

CITY           SKY/WX    TMP DP  RH WIND       PRES   REMARKS
KNOXVILLE      CLOUDY    34  29  82 W18       29.87  WCI  23
OAK RIDGE      CLOUDY    36  29  75 W7        29.89R WCI  30
GATLINBURG     CLOUDY    34  28  80 NW10      29.84R WCI  26
$$

TNZ083-085-099-261900-
SOUTHEAST TENNESSEE

CITY           SKY/WX    TMP DP  RH WIND       PRES   REMARKS
CHATTANOOGA    PTSUNNY   38  28  67 NW12      29.93F WCI  30
$$

SKY/WX REPORTED AS FAIR MEANS FEW OR NO CLOUDS BELOW
12 THOUSAND FEET.



USA.gov is the U.S. government's official web portal to all federal, state and local government web resources and services.